Regional Weather Roundup
Issued by NWS Little Rock, AR

Home | Current Version | Previous Version | Graphics & Text | Print | Product List | Glossary On
Versions: 1 2 3 4 5 6 7 8 9 10 11 12 13 14 15 16 17 18 19 20 21 22 23 24 25 26 27 28 29 30 31 32 33 34 35 36 37 38 39 40 41 42 43 44 45 46 47 48 49 50
000
ASUS44 KLZK 210705
RWRLZK

WEATHER ROUNDUP FOR ARKANSAS
NATIONAL WEATHER SERVICE LITTLE ROCK AR
100 AM CST SUN DEC 21 2014

NOTE: "FAIR" INDICATES FEW OR NO CLOUDS BELOW 12,000 FEET WITH NO
SIGNIFICANT WEATHER AND/OR OBSTRUCTIONS TO VISIBILITY.

ARZ001-003-010-029-210800-
NORTHWEST ARKANSAS

CITY           SKY/WX    TMP DP  RH WIND       PRES   REMARKS
FAYETTEVILLE   CLOUDY    41  39  93 CALM      30.16F
FORT SMITH     CLOUDY    44  40  85 NE5       30.18F
HARRISON       CLOUDY    40  37  89 CALM      30.18F
BENTONVILLE    CLOUDY    43  36  75 S5        30.16F
ROGERS         CLOUDY    41  36  82 S6        30.16F
SILOAM SPGS    CLOUDY    43  34  70 S6        30.17F
HIGHFILL       CLOUDY    42  38  85 S3        30.15F
$$

ARZ004-005-016-210800-
NORTH CENTRAL ARKANSAS

CITY           SKY/WX    TMP DP  RH WIND       PRES   REMARKS
BATESVILLE     CLOUDY    37  34  87 CALM      30.25S
FLIPPIN        CLOUDY    39  36  87 CALM      30.20F
MTN HOME       CLOUDY    39  37  92 SE5       30.20F
$$

ARZ040-041-210800-
WEST CENTRAL ARKANSAS

CITY           SKY/WX    TMP DP  RH WIND       PRES   REMARKS
MENA           CLOUDY    46  45  93 CALM      30.18F
MOUNT IDA      CLEAR     40  38  93 CALM      30.17F
$$

ARZ009-017-025-026-028-210800-
NORTHEAST ARKANSAS

CITY           SKY/WX    TMP DP  RH WIND       PRES   REMARKS
CORNING        CLOUDY    41  36  81 SE6       30.26S
JONESBORO      PTCLDY    35  33  92 NE5       30.26S WCI  31
NEWPORT        CLOUDY    39  37  92 E6        30.27S
WALNUT RIDGE   CLOUDY    41  34  75 E8        30.25S
BLYTHEVILLE    CLEAR     31  29  92 N3        30.27R
$$

ARZ022-023-033-042-044-210800-
CENTRAL ARKANSAS

CITY           SKY/WX    TMP DP  RH WIND       PRES   REMARKS
LITTLE ROCK    CLEAR     35  32  88 NE3       30.24F
N LITTLE ROCK    N/A     37  36  96 E6        30.24F
JACKSONVILLE   CLEAR     32  31  96 E1        30.23F
SEARCY         CLOUDY    38  37  97 N3        30.26F
HOT SPRINGS    CLEAR     37  34  89 CALM      30.22F
RUSSELLVILLE   CLOUDY    43  37  79 E5        30.21F
CLINTON        CLOUDY    39  37  93 CALM      30.24F FOG
$$

ARZ036-210800-
EAST ARKANSAS

CITY           SKY/WX    TMP DP  RH WIND       PRES   REMARKS
WEST MEMPHIS   CLEAR     35  32  88 NE5       30.24S WCI  31
$$

ARZ050-053-066-070-073-210800-
SOUTHWEST ARKANSAS

CITY           SKY/WX    TMP DP  RH WIND       PRES   REMARKS
ARKADELPHIA    FAIR      34  34 100 CALM      30.23F FOG
CAMDEN         CLEAR     32  32 100 CALM      30.23S FOG
TEXARKANA      CLEAR     41  40  96 E3        30.20F
EL DORADO      CLEAR     36  35  96 CALM      30.21F
DE QUEEN       CLOUDY    47  43  86 E7        30.18F
$$

ARZ056-057-069-210800-
SOUTHEAST ARKANSAS

CITY           SKY/WX    TMP DP  RH WIND       PRES   REMARKS
PINE BLUFF     CLEAR     34  32  92 N6        30.23F WCI  29
STUTTGART        N/A     36  32  87 N7        30.24F
MONTICELLO     CLEAR     35  33  92 CALM      30.22F

$$




USA.gov is the U.S. government's official web portal to all federal, state and local government web resources and services.